Date,TemperatureHighF,TemperatureAvgF,TemperatureLowF,DewpointHighF,DewpointAvgF,DewpointLowF,HumidityHigh,HumidityAvg,HumidityLow,PressureMaxIn,PressureMinIn,WindSpeedMaxMPH,WindSpeedAvgMPH,GustSpeedMaxMPH,PrecipitationSumIn
2013-3-1,-200,0,200,-100,-100,-100,0,0,100,30.28,30.09,11,3,17,0.00
2013-3-2,-200,0,200,-100,-100,-100,0,0,100,30.40,30.24,14,4,19,0.00
2013-3-3,-200,0,200,-100,-100,-100,0,0,100,30.24,29.89,15,4,23,0.00
2013-3-4,-200,0,200,-100,-100,-100,0,0,100,29.89,29.68,16,4,23,0.00
2013-3-5,-200,0,200,-100,-100,-100,0,0,100,30.34,29.75,19,7,28,0.00
2013-3-6,-200,0,200,-100,-100,-100,0,0,100,30.42,30.19,9,3,12,0.00
2013-3-7,-200,0,200,-100,-100,-100,0,0,100,30.22,30.06,14,4,23,0.00
2013-3-8,-200,0,200,-100,-100,-100,0,0,100,30.12,29.98,15,4,18,0.19
2013-3-9,-200,0,200,-100,-100,-100,0,0,100,29.99,29.64,18,7,27,0.02
2013-3-10,-200,0,200,-100,-100,-100,0,0,100,30.11,29.71,16,6,22,0.01
2013-3-11,66,32,53,30,-35,-100,39,13,19,30.16,29.98,10,4,16,0.00
2013-3-12,78,61,46,42,32,26,54,35,18,30.22,30.04,11,2,19,0.00
2013-3-13,75,62,51,42,37,32,61,41,25,30.41,30.23,11,1,15,0.00
2013-3-14,77,64,52,54,47,42,86,58,32,30.36,30.19,14,3,18,0.00
2013-3-15,79,65,54,56,50,41,93,63,26,30.22,29.96,14,3,21,0.00
2013-3-16,82,68,58,62,57,53,92,70,36,29.97,29.70,17,5,23,0.00
2013-3-17,82,71,64,64,61,59,91,73,48,29.77,29.61,17,4,24,0.00
2013-3-18,88,74,64,66,55,43,94,60,22,29.91,29.67,11,4,15,0.00
2013-3-19,82,66,54,64,53,45,74,64,46,29.97,29.81,10,2,16,0.03
2013-3-20,72,62,52,55,46,36,95,61,30,30.21,29.97,19,4,25,0.09
2013-3-21,74,63,52,60,52,39,84,67,45,30.00,29.57,13,4,23,0.00
2013-3-22,84,70,57,66,62,49,97,76,49,29.73,29.60,8,3,19,0.00
2013-3-23,80,62,51,61,53,47,90,75,51,29.76,29.57,9,3,12,0.00
2013-3-24,62,52,43,58,33,22,92,51,27,30.15,29.67,17,7,28,0.00
2013-3-25,60,49,36,27,22,16,59,37,19,30.38,30.15,8,3,14,0.00
2013-3-26,66,51,40,25,21,19,52,32,17,30.48,30.28,8,1,12,0.00
2013-3-27,68,56,42,48,38,23,73,53,37,30.31,30.14,11,3,21,0.00
2013-3-28,72,62,54,59,55,48,89,78,63,30.18,30.09,17,4,19,0.00
2013-3-29,76,67,58,61,58,56,96,74,53,30.15,30.02,12,4,17,0.00
2013-3-30,83,71,63,64,61,59,94,73,47,30.08,29.85,8,3,19,0.00
2013-3-31,79,70,66,66,63,57,91,79,52,29.93,29.82,10,3,20,0.02